Weather History for Boothville, LA

Change the Weather History Date:

Sunday, February 17, 2013

  Actual Average Record
Temperature  
Mean Temperature 48 °F -  
Max Temperature 57 °F - - ()
Min Temperature 39 °F - - ()
Degree Days  
Heating Degree Days 17    
Moisture  
Dew Point 35 °F    
Average Humidity 62    
Maximum Humidity 86    
Minimum Humidity 39    
Precipitation  
Precipitation 0.00 in - - ()
Sea Level Pressure  
Sea Level Pressure 30.32 in    
Wind  
Wind Speed 4 mph (East)    
Max Wind Speed 10 mph    
Max Gust Speed -    
Visibility 10 miles    
Events      
T = Trace of Precipitation, MM = Missing Value Source: NWS Daily Summary

Daily Weather History Graph

Daily Weather History Graph

Search for Another Location

Airport:

Trip Planner

Search our weather history database for the weather conditions in past years. The results will help you decide how hot, cold, wet, or windy it might be!

Date:

Astronomy

Feb. 17, 2013 Rise Set
Actual Time 6:34 AM CST 5:48 PM CST
Civil Twilight 6:10 AM CST 6:13 PM CST
Nautical Twilight 5:42 AM CST 6:40 PM CST
Astronomical Twilight 5:15 AM CST 7:08 PM CST
Moon 11:03 AM CST (2/17) 12:09 AM CST (2/17)
Length of Visible Light 12h 02m
Length of Day
11h 14m
Waxing Crescent, 49% of the Moon is Illuminated
Feb 17
Waxing Crescent
Feb 17
First Quarter
Feb 25
Full
Mar 4
Last Quarter
Mar 11
New

Hourly Weather History & Observations

Time (CST) Temp. Windchill Dew Point Humidity Pressure Visibility Wind Dir Wind Speed Gust Speed Precip Events Conditions
12:51 AM 41.0 °F 39.0 °F 32.0 °F 70% 30.31 in 10.0 mi NW 3.5 mph - N/A   Clear
1:51 AM 39.9 °F 37.8 °F 33.1 °F 77% 30.30 in 10.0 mi NW 3.5 mph - N/A   Clear
2:51 AM 39.9 °F 37.8 °F 33.1 °F 77% 30.30 in 10.0 mi WNW 3.5 mph - N/A   Clear
3:51 AM 39.9 °F - 36.0 °F 86% 30.31 in 10.0 mi Calm Calm - N/A   Clear
4:51 AM 43.0 °F 41.3 °F 34.0 °F 71% 30.32 in 10.0 mi NNE 3.5 mph - N/A   Clear
5:51 AM 42.1 °F - 34.0 °F 73% 30.33 in 10.0 mi Calm Calm - N/A   Clear
6:51 AM 43.0 °F - 36.0 °F 76% 30.35 in 10.0 mi Calm Calm - N/A   Clear
7:51 AM 46.9 °F - 37.0 °F 68% 30.37 in 10.0 mi East 5.8 mph - N/A   Clear
8:51 AM 50.0 °F - 34.0 °F 54% 30.38 in 10.0 mi East 5.8 mph - N/A   Clear
9:51 AM 52.0 °F - 30.0 °F 43% 30.39 in 10.0 mi East 4.6 mph - N/A   Clear
10:51 AM 54.0 °F - 30.9 °F 41% 30.39 in 10.0 mi East 3.5 mph - N/A   Clear
11:51 AM 55.0 °F - 33.1 °F 43% 30.38 in 10.0 mi NE 4.6 mph - N/A   Clear
12:51 PM 55.9 °F - 34.0 °F 44% 30.35 in 10.0 mi NE 5.8 mph - N/A   Clear
1:51 PM 55.9 °F - 32.0 °F 40% 30.32 in 10.0 mi Variable 3.5 mph - N/A   Clear
2:51 PM 55.9 °F - 30.9 °F 39% 30.30 in 10.0 mi SE 6.9 mph - N/A   Clear
3:51 PM 57.0 °F - 33.1 °F 40% 30.28 in 10.0 mi South 10.4 mph - N/A   Clear
4:51 PM 55.0 °F - 34.0 °F 45% 30.28 in 10.0 mi South 9.2 mph - N/A   Clear
5:51 PM 51.1 °F - 33.1 °F 50% 30.29 in 10.0 mi ESE 3.5 mph - N/A   Clear
6:51 PM 48.0 °F - 34.0 °F 58% 30.29 in 10.0 mi ESE 3.5 mph - N/A   Clear
7:51 PM 46.9 °F - 39.0 °F 74% 30.30 in 10.0 mi ESE 4.6 mph - N/A   Clear
8:51 PM 46.9 °F - 39.9 °F 77% 30.30 in 10.0 mi ESE 4.6 mph - N/A   Clear
9:51 PM 46.9 °F - 39.0 °F 74% 30.29 in 10.0 mi ESE 5.8 mph - N/A   Clear
10:51 PM 46.9 °F - 41.0 °F 80% 30.29 in 10.0 mi SE 5.8 mph - N/A   Clear
11:51 PM 46.9 °F - 42.1 °F 83% 30.27 in 10.0 mi ESE 5.8 mph - N/A   Clear